| time (UTC) | temp F | wind direction | speed MPH | gust MPH | rain 1hr in | rain 24hr in | rain mn in | humidity % | barometer mb |
| 20260508124501 | 52 | 80 | 0.0 | 2.0 | 0.00 | 0.13 | 0.00 | 96 | 1017.7 |
| 20260508124004 | 52 | 293 | 0.0 | 1.0 | 0.00 | 0.13 | 0.00 | 96 | 1017.7 |
| 20260508123501 | 52 | 35 | 0.0 | 3.0 | 0.00 | 0.13 | 0.00 | 96 | 1017.7 |
| 20260508123001 | 51 | 345 | 0.0 | 3.0 | 0.00 | 0.13 | 0.00 | 97 | 1017.6 |
| 20260508122001 | 51 | 63 | 0.0 | 2.0 | 0.00 | 0.13 | 0.00 | 96 | 1017.6 |
| 20260508121501 | 50 | 45 | 0.0 | 1.0 | 0.00 | 0.13 | 0.00 | 97 | 1017.4 |
| 20260508121001 | 50 | 74 | 0.0 | 2.0 | 0.00 | 0.13 | 0.00 | 96 | 1017.4 |
| 20260508120502 | 50 | 84 | 0.0 | 2.0 | 0.00 | 0.13 | 0.00 | 96 | 1017.3 |
| 20260508120003 | 50 | 76 | 0.0 | 2.0 | 0.00 | 0.13 | 0.00 | 97 | 1017.3 |
| 20260508115501 | 49 | 70 | 0.0 | 2.0 | 0.00 | 0.34 | 0.00 | 96 | 1017.2 |
| 20260508115001 | 49 | 70 | 0.0 | 2.0 | 0.00 | 0.34 | 0.00 | 97 | 1017.1 |
| 20260508114501 | 49 | 76 | 0.0 | 1.0 | 0.00 | 0.34 | 0.00 | 96 | 1017.0 |
| 20260508113001 | 48 | 105 | 0.0 | 3.0 | 0.00 | 0.34 | 0.00 | 96 | 1016.9 |
| 20260508112503 | 48 | 105 | 0.0 | 3.0 | 0.00 | 0.34 | 0.00 | 96 | 1016.7 |
| 20260508112001 | 48 | 87 | 0.0 | 1.0 | 0.00 | 0.34 | 0.00 | 95 | 1016.5 |
| 20260508111001 | 47 | 87 | 0.0 | 0.0 | 0.00 | 0.34 | 0.00 | 94 | 1016.4 |
| 20260508105501 | 47 | 90 | 0.0 | 1.0 | 0.00 | 0.49 | 0.00 | 94 | 1016.3 |
| 20260508105000 | 47 | 63 | 0.0 | 0.0 | 0.00 | 0.49 | 0.00 | 95 | 1016.1 |
| 20260508103501 | 48 | 63 | 0.0 | 0.0 | 0.00 | 0.49 | 0.00 | 95 | 1015.8 |
| 20260508102501 | 48 | 63 | 0.0 | 0.0 | 0.00 | 0.49 | 0.00 | 95 | 1015.7 |
| 20260508102003 | 48 | 63 | 0.0 | 0.0 | 0.00 | 0.49 | 0.00 | 95 | 1015.7 |
| 20260508101501 | 47 | 63 | 0.0 | 0.0 | 0.00 | 0.49 | 0.00 | 94 | 1015.6 |
| 20260508101002 | 47 | 63 | 0.0 | 0.0 | 0.00 | 0.49 | 0.00 | 93 | 1015.6 |
| 20260508100500 | 48 | 63 | 0.0 | 0.0 | 0.00 | 0.49 | 0.00 | 94 | 1015.5 |
| 20260508100003 | 48 | 63 | 0.0 | 0.0 | 0.00 | 0.49 | 0.00 | 93 | 1015.5 |
| 20260508095502 | 47 | 63 | 0.0 | 0.0 | 0.00 | 0.57 | 0.00 | 93 | 1015.2 |
| 20260508095001 | 48 | 63 | 0.0 | 0.0 | 0.00 | 0.57 | 0.00 | 93 | 1015.3 |
| 20260508094501 | 48 | 63 | 0.0 | 0.0 | 0.00 | 0.57 | 0.00 | 93 | 1015.2 |
| 20260508094001 | 48 | 63 | 0.0 | 0.0 | 0.00 | 0.57 | 0.00 | 93 | 1015.1 |
| 20260508093503 | 48 | 63 | 0.0 | 0.0 | 0.00 | 0.57 | 0.00 | 93 | 1015.1 |
| 20260508093001 | 48 | 63 | 0.0 | 0.0 | 0.00 | 0.57 | 0.00 | 94 | 1014.9 |
| 20260508092501 | 48 | 63 | 0.0 | 0.0 | 0.00 | 0.57 | 0.00 | 94 | 1015.0 |
| 20260508092002 | 47 | 71 | 0.0 | 0.0 | 0.00 | 0.57 | 0.00 | 93 | 1015.1 |
| 20260508091501 | 47 | 71 | 0.0 | 0.0 | 0.00 | 0.57 | 0.00 | 92 | 1015.0 |
| 20260508091002 | 47 | 71 | 0.0 | 0.0 | 0.00 | 0.57 | 0.00 | 92 | 1015.0 |
| 20260508090501 | 47 | 71 | 0.0 | 0.0 | 0.00 | 0.57 | 0.00 | 91 | 1014.9 |
| 20260508090003 | 47 | 71 | 0.0 | 0.0 | 0.00 | 0.57 | 0.00 | 91 | 1014.9 |
| 20260508085502 | 48 | 71 | 0.0 | 0.0 | 0.00 | 0.77 | 0.00 | 91 | 1014.8 |
| 20260508085000 | 48 | 71 | 0.0 | 0.0 | 0.00 | 0.77 | 0.00 | 91 | 1014.8 |
| 20260508084500 | 48 | 71 | 0.0 | 0.0 | 0.00 | 0.77 | 0.00 | 91 | 1014.9 |
| 20260508084000 | 48 | 71 | 0.0 | 0.0 | 0.00 | 0.77 | 0.00 | 91 | 1014.8 |
| 20260508083503 | 48 | 71 | 0.0 | 0.0 | 0.00 | 0.77 | 0.00 | 91 | 1014.7 |
| 20260508083002 | 48 | 71 | 0.0 | 0.0 | 0.00 | 0.77 | 0.00 | 91 | 1014.8 |
| 20260508082501 | 48 | 71 | 0.0 | 0.0 | 0.00 | 0.77 | 0.00 | 91 | 1014.7 |
| 20260508080501 | 48 | 71 | 0.0 | 0.0 | 0.00 | 0.77 | 0.00 | 91 | 1014.6 |
| 20260508080004 | 49 | 71 | 0.0 | 0.0 | 0.00 | 0.77 | 0.00 | 90 | 1014.6 |
| 20260508074501 | 49 | 71 | 0.0 | 0.0 | 0.00 | 1.04 | 0.00 | 90 | 1014.8 |
| 20260508074004 | 49 | 71 | 0.0 | 0.0 | 0.00 | 1.04 | 0.00 | 91 | 1014.7 |
| 20260508073500 | 49 | 71 | 0.0 | 0.0 | 0.00 | 1.04 | 0.00 | 91 | 1014.8 |
| 20260508073001 | 49 | 71 | 0.0 | 0.0 | 0.00 | 1.04 | 0.00 | 90 | 1014.7 |
| 20260508072502 | 49 | 71 | 0.0 | 0.0 | 0.00 | 1.04 | 0.00 | 90 | 1014.8 |
| 20260508072001 | 49 | 71 | 0.0 | 0.0 | 0.00 | 1.04 | 0.00 | 90 | 1014.8 |
| 20260508071501 | 49 | 71 | 0.0 | 0.0 | 0.00 | 1.04 | 0.00 | 89 | 1014.7 |
| 20260508071000 | 49 | 71 | 0.0 | 0.0 | 0.00 | 1.04 | 0.00 | 89 | 1014.8 |
| 20260508070502 | 49 | 71 | 0.0 | 0.0 | 0.00 | 1.04 | 0.00 | 89 | 1014.7 |
| 20260508070003 | 50 | 71 | 0.0 | 0.0 | 0.00 | 1.04 | 0.00 | 89 | 1014.6 |
| 20260508065501 | 50 | 71 | 0.0 | 0.0 | 0.00 | 1.31 | 0.00 | 89 | 1014.5 |
| 20260508065003 | 50 | 71 | 0.0 | 0.0 | 0.00 | 1.31 | 0.00 | 89 | 1014.4 |
| 20260508063501 | 50 | 71 | 0.0 | 0.0 | 0.00 | 1.31 | 0.00 | 89 | 1014.5 |
| 20260508063002 | 50 | 71 | 0.0 | 0.0 | 0.00 | 1.31 | 0.00 | 89 | 1014.4 |
| 20260508062501 | 51 | 71 | 0.0 | 0.0 | 0.00 | 1.31 | 0.00 | 89 | 1014.3 |
| 20260508062001 | 51 | 71 | 0.0 | 0.0 | 0.00 | 1.31 | 0.00 | 89 | 1014.5 |
| 20260508061002 | 51 | 71 | 0.0 | 0.0 | 0.00 | 1.31 | 0.00 | 89 | 1014.4 |
| 20260508060501 | 51 | 71 | 0.0 | 0.0 | 0.00 | 1.31 | 0.00 | 89 | 1014.4 |
| 20260508060002 | 51 | 71 | 0.0 | 0.0 | 0.00 | 1.31 | 0.00 | 89 | 1014.4 |
| 20260508055500 | 51 | 71 | 0.0 | 0.0 | 0.00 | 1.49 | 0.00 | 88 | 1014.5 |
| 20260508055001 | 52 | 71 | 0.0 | 0.0 | 0.00 | 1.49 | 0.00 | 88 | 1014.6 |
| 20260508054500 | 52 | 71 | 0.0 | 0.0 | 0.00 | 1.49 | 0.00 | 88 | 1014.5 |
| 20260508053959 | 52 | 71 | 0.0 | 0.0 | 0.00 | 1.49 | 0.00 | 88 | 1014.5 |
| 20260508053459 | 52 | 71 | 0.0 | 0.0 | 0.00 | 1.49 | 0.00 | 88 | 1014.5 |
| 20260508053001 | 52 | 71 | 0.0 | 0.0 | 0.00 | 1.49 | 0.00 | 88 | 1014.5 |
| 20260508052000 | 53 | 71 | 0.0 | 0.0 | 0.00 | 1.49 | 0.00 | 87 | 1014.7 |
| 20260508051002 | 53 | 71 | 0.0 | 0.0 | 0.00 | 1.49 | 0.00 | 86 | 1014.5 |
| 20260508050500 | 53 | 71 | 0.0 | 0.0 | 0.00 | 1.49 | 0.00 | 86 | 1014.5 |
| 20260508050005 | 53 | 71 | 0.0 | 0.0 | 0.00 | 1.49 | 0.00 | 86 | 1014.4 |
| 20260508045501 | 53 | 71 | 0.0 | 0.0 | 0.00 | 1.70 | 0.00 | 86 | 1014.5 |
| 20260508044503 | 54 | 71 | 0.0 | 0.0 | 0.00 | 1.70 | 0.00 | 86 | 1014.3 |
| 20260508044001 | 54 | 71 | 0.0 | 0.0 | 0.00 | 1.70 | 0.00 | 86 | 1014.2 |
| 20260508043501 | 54 | 71 | 0.0 | 0.0 | 0.00 | 1.70 | 0.00 | 85 | 1014.1 |
| 20260508043001 | 54 | 71 | 0.0 | 0.0 | 0.00 | 1.70 | 0.00 | 85 | 1014.2 |
| 20260508042503 | 55 | 71 | 0.0 | 0.0 | 0.00 | 1.70 | 0.00 | 85 | 1014.2 |
| 20260508042001 | 55 | 71 | 0.0 | 0.0 | 0.00 | 1.70 | 0.00 | 85 | 1014.1 |
| 20260508041003 | 55 | 71 | 0.0 | 0.0 | 0.00 | 1.70 | 0.00 | 85 | 1013.8 |
| 20260508040501 | 55 | 71 | 0.0 | 0.0 | 0.00 | 1.70 | 0.00 | 85 | 1013.7 |
| 20260508040011 | 55 | 71 | 0.0 | 0.0 | 0.00 | 1.70 | 0.00 | 85 | 1013.7 |
| 20260508034503 | 56 | 71 | 0.0 | 0.0 | 0.00 | 1.70 | 1.70 | 84 | 1013.9 |
| 20260508034005 | 56 | 71 | 0.0 | 0.0 | 0.00 | 1.70 | 1.70 | 84 | 1014.1 |
| 20260508033503 | 56 | 71 | 0.0 | 0.0 | 0.00 | 1.70 | 1.70 | 84 | 1014.0 |
| 20260508033003 | 56 | 71 | 0.0 | 0.0 | 0.00 | 1.70 | 1.70 | 83 | 1013.9 |
| 20260508031502 | 57 | 71 | 0.0 | 0.0 | 0.00 | 1.70 | 1.70 | 83 | 1013.8 |
| 20260508031003 | 57 | 71 | 0.0 | 0.0 | 0.00 | 1.70 | 1.70 | 83 | 1013.7 |
| 20260508030503 | 58 | 71 | 0.0 | 0.0 | 0.00 | 1.70 | 1.70 | 82 | 1013.7 |
| 20260508030006 | 58 | 71 | 0.0 | 0.0 | 0.00 | 1.70 | 1.70 | 81 | 1013.6 |
| 20260508025502 | 58 | 71 | 0.0 | 0.0 | 0.00 | 1.71 | 1.70 | 80 | 1013.6 |
| 20260508024502 | 59 | 71 | 0.0 | 0.0 | 0.00 | 1.71 | 1.70 | 80 | 1013.5 |
| 20260508023502 | 59 | 71 | 0.0 | 0.0 | 0.00 | 1.71 | 1.70 | 80 | 1013.5 |
| 20260508023002 | 59 | 71 | 0.0 | 0.0 | 0.00 | 1.71 | 1.70 | 79 | 1013.3 |
| 20260508022502 | 60 | 71 | 0.0 | 0.0 | 0.00 | 1.71 | 1.70 | 79 | 1013.2 |
| 20260508021502 | 60 | 71 | 0.0 | 0.0 | 0.00 | 1.71 | 1.70 | 78 | 1013.3 |
| 20260508021002 | 61 | 71 | 0.0 | 0.0 | 0.00 | 1.71 | 1.70 | 77 | 1013.1 |
| 20260508020502 | 61 | 71 | 0.0 | 0.0 | 0.00 | 1.71 | 1.70 | 77 | 1013.0 |
| 20260508020007 | 61 | 71 | 0.0 | 0.0 | 0.00 | 1.71 | 1.70 | 75 | 1013.0 |
| 20260508015003 | 62 | 71 | 0.0 | 0.0 | 0.00 | 1.90 | 1.70 | 75 | 1012.7 |
| 20260508014502 | 62 | 71 | 0.0 | 1.0 | 0.00 | 1.90 | 1.70 | 74 | 1012.6 |
| 20260508014006 | 62 | 71 | 0.0 | 1.0 | 0.00 | 1.90 | 1.70 | 74 | 1012.5 |
| 20260508013503 | 63 | 57 | 0.0 | 2.0 | 0.00 | 1.90 | 1.70 | 74 | 1012.3 |
| 20260508013002 | 63 | 103 | 0.0 | 2.0 | 0.00 | 1.90 | 1.70 | 74 | 1012.3 |
| 20260508012505 | 63 | 72 | 1.0 | 3.0 | 0.00 | 1.90 | 1.70 | 74 | 1012.1 |
| 20260508012003 | 64 | 71 | 0.0 | 3.0 | 0.00 | 1.90 | 1.70 | 71 | 1011.9 |
| 20260508011503 | 64 | 109 | 0.0 | 3.0 | 0.00 | 1.90 | 1.70 | 70 | 1011.9 |
| 20260508011003 | 65 | 67 | 0.0 | 2.0 | 0.00 | 1.90 | 1.70 | 71 | 1011.8 |
| 20260508010505 | 65 | 67 | 1.0 | 2.0 | 0.00 | 1.90 | 1.70 | 71 | 1011.7 |
| 20260508010004 | 65 | 5 | 1.0 | 7.0 | 0.00 | 1.90 | 1.70 | 69 | 1011.4 |
| 20260508005501 | 65 | 5 | 2.0 | 7.0 | 0.00 | 2.32 | 1.70 | 69 | 1011.2 |
| 20260508005001 | 65 | 333 | 2.0 | 5.0 | 0.00 | 2.32 | 1.70 | 68 | 1011.3 |
| 20260508004503 | 66 | 349 | 2.0 | 7.0 | 0.00 | 2.32 | 1.70 | 69 | 1011.1 |
| 20260508004002 | 66 | 284 | 3.0 | 8.0 | 0.00 | 2.32 | 1.70 | 68 | 1011.0 |
| 20260508003501 | 66 | 309 | 4.0 | 10.0 | 0.00 | 2.32 | 1.70 | 68 | 1010.9 |
| 20260508003001 | 67 | 263 | 3.0 | 10.0 | 0.00 | 2.32 | 1.70 | 67 | 1010.9 |
| 20260508002503 | 67 | 286 | 4.0 | 9.0 | 0.00 | 2.32 | 1.70 | 67 | 1010.6 |
| 20260508002005 | 67 | 252 | 4.0 | 10.0 | 0.00 | 2.32 | 1.70 | 66 | 1010.6 |
| 20260508001501 | 68 | 263 | 2.0 | 10.0 | 0.00 | 2.32 | 1.70 | 64 | 1010.5 |
| 20260508001004 | 68 | 290 | 2.0 | 10.0 | 0.00 | 2.32 | 1.70 | 64 | 1010.4 |
| 20260508000504 | 68 | 294 | 3.0 | 10.0 | 0.00 | 2.32 | 1.70 | 63 | 1010.3 |
| 20260507235503 | 69 | 304 | 3.0 | 9.0 | 0.00 | 2.33 | 1.70 | 63 | 1010.0 |
| 20260507235001 | 69 | 329 | 3.0 | 9.0 | 0.00 | 2.33 | 1.70 | 63 | 1010.0 |
| 20260507234501 | 69 | 349 | 3.0 | 8.0 | 0.00 | 2.33 | 1.70 | 63 | 1009.9 |
| 20260507234001 | 70 | 282 | 3.0 | 9.0 | 0.00 | 2.33 | 1.70 | 64 | 1009.7 |
| 20260507233503 | 70 | 325 | 3.0 | 13.0 | 0.00 | 2.33 | 1.70 | 64 | 1009.7 |
| 20260507233001 | 70 | 315 | 3.0 | 15.0 | 0.00 | 2.33 | 1.70 | 64 | 1009.5 |
| 20260507232001 | 71 | 300 | 2.0 | 5.0 | 0.00 | 2.33 | 1.70 | 65 | 1009.4 |
| 20260507231501 | 71 | 319 | 2.0 | 4.0 | 0.00 | 2.33 | 1.70 | 65 | 1009.3 |
| 20260507231001 | 71 | 299 | 3.0 | 12.0 | 0.00 | 2.33 | 1.70 | 64 | 1009.4 |
| 20260507230501 | 71 | 292 | 3.0 | 12.0 | 0.00 | 2.33 | 1.70 | 65 | 1009.2 |
| 20260507225501 | 72 | 315 | 3.0 | 11.0 | 0.00 | 2.33 | 1.70 | 63 | 1009.3 |
| 20260507225001 | 72 | 321 | 3.0 | 11.0 | 0.00 | 2.33 | 1.70 | 64 | 1009.3 |
| 20260507224503 | 72 | 299 | 3.0 | 12.0 | 0.00 | 2.33 | 1.70 | 63 | 1009.1 |
| 20260507224001 | 72 | 318 | 4.0 | 12.0 | 0.00 | 2.33 | 1.70 | 65 | 1009.0 |
| 20260507223501 | 73 | 293 | 3.0 | 9.0 | 0.00 | 2.33 | 1.70 | 64 | 1008.9 |
| 20260507223003 | 73 | 323 | 3.0 | 13.0 | 0.00 | 2.33 | 1.70 | 62 | 1008.8 |
| 20260507222501 | 73 | 299 | 4.0 | 12.0 | 0.00 | 2.33 | 1.70 | 62 | 1008.8 |
| 20260507222003 | 74 | 5 | 5.0 | 11.0 | 0.00 | 2.33 | 1.70 | 63 | 1008.6 |
| 20260507221001 | 74 | 302 | 5.0 | 14.0 | 0.00 | 2.33 | 1.70 | 64 | 1008.4 |
| 20260507220501 | 74 | 306 | 4.0 | 11.0 | 0.00 | 2.33 | 1.70 | 62 | 1008.3 |
| 20260507220007 | 74 | 302 | 4.0 | 11.0 | 0.00 | 2.33 | 1.70 | 63 | 1008.4 |
| 20260507215501 | 74 | 263 | 4.0 | 13.0 | 0.00 | 2.33 | 1.70 | 64 | 1008.2 |
| 20260507215001 | 74 | 338 | 4.0 | 12.0 | 0.00 | 2.33 | 1.70 | 63 | 1008.2 |
| 20260507214003 | 75 | 26 | 5.0 | 15.0 | 0.00 | 2.33 | 1.70 | 62 | 1008.1 |
| 20260507213502 | 75 | 169 | 4.0 | 15.0 | 0.00 | 2.33 | 1.70 | 63 | 1008.1 |
| 20260507212003 | 75 | 304 | 4.0 | 14.0 | 0.00 | 2.33 | 1.70 | 63 | 1008.2 |
| 20260507211501 | 75 | 268 | 4.0 | 13.0 | 0.00 | 2.33 | 1.70 | 63 | 1008.2 |
| 20260507211001 | 75 | 274 | 5.0 | 13.0 | 0.00 | 2.33 | 1.70 | 63 | 1008.2 |
| 20260507210502 | 75 | 340 | 5.0 | 11.0 | 0.00 | 2.33 | 1.70 | 65 | 1008.1 |
| 20260507205502 | 75 | 298 | 3.0 | 13.0 | 0.00 | 2.33 | 1.70 | 67 | 1008.0 |
| 20260507205002 | 75 | 298 | 3.0 | 9.0 | 0.00 | 2.33 | 1.70 | 65 | 1008.0 |
| 20260507204504 | 75 | 319 | 4.0 | 9.0 | 0.00 | 2.33 | 1.70 | 65 | 1008.2 |
| 20260507204002 | 75 | 332 | 4.0 | 13.0 | 0.00 | 2.33 | 1.70 | 64 | 1008.2 |
| 20260507203504 | 75 | 275 | 4.0 | 13.0 | 0.00 | 2.33 | 1.70 | 63 | 1008.2 |
| 20260507203002 | 75 | 5 | 3.0 | 10.0 | 0.00 | 2.33 | 1.70 | 64 | 1008.1 |
| 20260507202504 | 75 | 5 | 3.0 | 9.0 | 0.00 | 2.33 | 1.70 | 66 | 1008.2 |
| 20260507201002 | 76 | 309 | 5.0 | 13.0 | 0.00 | 2.33 | 1.70 | 62 | 1008.3 |
| 20260507200504 | 76 | 254 | 3.0 | 11.0 | 0.00 | 2.33 | 1.70 | 63 | 1008.4 |
| 20260507200005 | 76 | 257 | 3.0 | 12.0 | 0.00 | 2.33 | 1.70 | 64 | 1008.3 |
| 20260507195502 | 76 | 240 | 4.0 | 12.0 | 0.00 | 2.33 | 1.70 | 64 | 1008.4 |
| 20260507195004 | 76 | 296 | 5.0 | 19.0 | 0.00 | 2.33 | 1.70 | 60 | 1008.5 |
| 20260507194502 | 77 | 216 | 6.0 | 19.0 | 0.00 | 2.33 | 1.70 | 60 | 1008.5 |
| 20260507194002 | 77 | 280 | 5.0 | 14.0 | 0.00 | 2.33 | 1.70 | 61 | 1008.5 |
| 20260507193502 | 77 | 278 | 4.0 | 14.0 | 0.00 | 2.33 | 1.70 | 63 | 1008.5 |
| 20260507193004 | 77 | 288 | 4.0 | 12.0 | 0.00 | 2.33 | 1.70 | 63 | 1008.5 |
| 20260507192502 | 77 | 285 | 4.0 | 10.0 | 0.00 | 2.33 | 1.70 | 64 | 1008.5 |
| 20260507192002 | 76 | 288 | 3.0 | 9.0 | 0.00 | 2.33 | 1.70 | 63 | 1008.5 |
| 20260507191502 | 77 | 355 | 4.0 | 12.0 | 0.00 | 2.33 | 1.70 | 66 | 1008.5 |
| 20260507191002 | 76 | 340 | 4.0 | 12.0 | 0.00 | 2.33 | 1.70 | 68 | 1008.6 |
| 20260507190006 | 76 | 309 | 5.0 | 13.0 | 0.00 | 2.33 | 1.70 | 67 | 1008.9 |
| 20260507185502 | 76 | 285 | 5.0 | 12.0 | 0.00 | 2.33 | 1.70 | 70 | 1009.0 |
| 20260507185003 | 75 | 305 | 4.0 | 12.0 | 0.00 | 2.33 | 1.70 | 73 | 1009.0 |
| 20260507184502 | 75 | 318 | 3.0 | 8.0 | 0.00 | 2.33 | 1.70 | 73 | 1009.1 |
| 20260507184003 | 75 | 344 | 2.0 | 8.0 | 0.00 | 2.33 | 1.70 | 73 | 1009.1 |
| 20260507183502 | 75 | 331 | 3.0 | 15.0 | 0.00 | 2.33 | 1.70 | 72 | 1009.0 |
| 20260507183002 | 76 | 355 | 4.0 | 15.0 | 0.00 | 2.33 | 1.70 | 71 | 1009.0 |
| 20260507181502 | 75 | 323 | 3.0 | 9.0 | 0.00 | 2.33 | 1.70 | 74 | 1009.1 |
| 20260507181002 | 75 | 302 | 3.0 | 9.0 | 0.00 | 2.33 | 1.70 | 72 | 1009.2 |
| 20260507180502 | 75 | 355 | 3.0 | 12.0 | 0.00 | 2.33 | 1.70 | 73 | 1009.1 |
| 20260507180006 | 75 | 303 | 3.0 | 12.0 | 0.00 | 2.33 | 1.70 | 74 | 1009.2 |
| 20260507175501 | 75 | 273 | 3.0 | 7.0 | 0.00 | 2.33 | 1.70 | 74 | 1009.2 |
| 20260507175001 | 75 | 319 | 3.0 | 9.0 | 0.00 | 2.33 | 1.70 | 76 | 1009.2 |
| 20260507174502 | 75 | 232 | 3.0 | 10.0 | 0.00 | 2.33 | 1.70 | 75 | 1009.2 |
| 20260507174004 | 74 | 289 | 3.0 | 10.0 | 0.00 | 2.33 | 1.70 | 76 | 1009.0 |
| 20260507173002 | 74 | 221 | 3.0 | 11.0 | 0.00 | 2.33 | 1.70 | 77 | 1009.1 |
| 20260507172502 | 74 | 309 | 2.0 | 11.0 | 0.00 | 2.33 | 1.70 | 76 | 1009.0 |
| 20260507172003 | 74 | 355 | 2.0 | 7.0 | 0.00 | 2.33 | 1.70 | 79 | 1009.2 |
| 20260507171502 | 73 | 257 | 2.0 | 9.0 | 0.00 | 2.33 | 1.70 | 82 | 1009.2 |
| 20260507171002 | 72 | 335 | 2.0 | 9.0 | 0.00 | 2.33 | 1.70 | 84 | 1009.3 |
| 20260507170502 | 71 | 280 | 1.0 | 6.0 | 0.00 | 2.33 | 1.70 | 85 | 1009.4 |
| 20260507170005 | 70 | 338 | 1.0 | 3.0 | 0.00 | 2.33 | 1.70 | 82 | 1009.5 |
| 20260507165001 | 71 | 331 | 1.0 | 4.0 | 0.00 | 2.34 | 1.70 | 82 | 1009.3 |
| 20260507164500 | 70 | 261 | 1.0 | 4.0 | 0.00 | 2.34 | 1.70 | 84 | 1009.5 |
| 20260507164002 | 71 | 334 | 2.0 | 6.0 | 0.00 | 2.34 | 1.70 | 83 | 1009.5 |
| 20260507163501 | 71 | 246 | 2.0 | 6.0 | 0.00 | 2.34 | 1.70 | 85 | 1009.6 |
| 20260507163000 | 71 | 196 | 1.0 | 5.0 | 0.00 | 2.34 | 1.70 | 88 | 1009.8 |
| 20260507162502 | 71 | 355 | 2.0 | 5.0 | 0.00 | 2.34 | 1.70 | 87 | 1009.8 |
| 20260507162000 | 71 | 355 | 2.0 | 9.0 | 0.00 | 2.34 | 1.70 | 87 | 1010.1 |
| 20260507161500 | 70 | 308 | 3.0 | 9.0 | 0.00 | 2.34 | 1.70 | 89 | 1010.1 |
| 20260507161000 | 69 | 259 | 2.0 | 9.0 | 0.00 | 2.34 | 1.70 | 89 | 1010.0 |
| 20260507160502 | 69 | 256 | 1.0 | 3.0 | 0.00 | 2.34 | 1.70 | 91 | 1009.9 |
| 20260507160003 | 68 | 350 | 2.0 | 4.0 | 0.00 | 2.34 | 1.70 | 93 | 1009.9 |
| 20260507155500 | 67 | 270 | 1.0 | 6.0 | 0.00 | 2.34 | 1.70 | 94 | 1009.7 |
| 20260507155002 | 67 | 284 | 0.0 | 2.0 | 0.00 | 2.34 | 1.70 | 93 | 1009.9 |
| 20260507154500 | 67 | 319 | 1.0 | 5.0 | 0.00 | 2.34 | 1.70 | 94 | 1010.1 |
| 20260507154000 | 67 | 344 | 1.0 | 5.0 | 0.00 | 2.34 | 1.70 | 94 | 1010.4 |
| 20260507153500 | 67 | 198 | 1.0 | 3.0 | 0.00 | 2.34 | 1.70 | 96 | 1010.4 |
| 20260507153000 | 67 | 321 | 1.0 | 2.0 | 0.00 | 2.34 | 1.70 | 96 | 1010.2 |
| 20260507152500 | 67 | 360 | 1.0 | 7.0 | 0.00 | 2.34 | 1.70 | 98 | 1010.3 |
| 20260507151501 | 66 | 284 | 1.0 | 4.0 | 0.00 | 2.34 | 1.70 | 98 | 1010.7 |
| 20260507150500 | 65 | 355 | 1.0 | 3.0 | 0.00 | 2.34 | 1.70 | 98 | 1010.7 |
| 20260507150005 | 65 | 355 | 2.0 | 7.0 | 0.00 | 2.34 | 1.70 | 98 | 1010.7 |
| 20260507145500 | 66 | 307 | 2.0 | 7.0 | 0.00 | 2.34 | 1.70 | 99 | 1010.7 |
| 20260507145000 | 65 | 9 | 1.0 | 4.0 | 0.00 | 2.34 | 1.70 | 99 | 1010.5 |
| 20260507144002 | 65 | 323 | 1.0 | 5.0 | 0.00 | 2.34 | 1.70 | 99 | 1010.2 |
| 20260507143000 | 65 | 279 | 1.0 | 4.0 | 0.01 | 2.34 | 1.70 | 99 | 1009.9 |
| 20260507142500 | 64 | 288 | 1.0 | 4.0 | 0.03 | 2.34 | 1.70 | 99 | 1009.6 |
| 20260507142002 | 64 | 176 | 0.0 | 1.0 | 0.03 | 2.34 | 1.70 | 99 | 1009.5 |
| 20260507141500 | 64 | 176 | 0.0 | 0.0 | 0.04 | 2.34 | 1.70 | 99 | 1009.4 |
| 20260507141000 | 64 | 176 | 0.0 | 0.0 | 0.05 | 2.34 | 1.70 | 99 | 1009.4 |
| 20260507140500 | 64 | 176 | 0.0 | 0.0 | 0.07 | 2.34 | 1.70 | 99 | 1009.5 |
| 20260507140006 | 64 | 176 | 0.0 | 0.0 | 0.07 | 2.34 | 1.70 | 99 | 1009.8 |
| 20260507135002 | 63 | 176 | 0.0 | 1.0 | 0.11 | 2.34 | 1.70 | 99 | 1009.8 |
| 20260507134501 | 63 | 176 | 0.0 | 2.0 | 0.13 | 2.34 | 1.70 | 99 | 1009.9 |
| 20260507134000 | 63 | 176 | 0.0 | 2.0 | 0.13 | 2.34 | 1.70 | 99 | 1010.1 |
| 20260507133500 | 63 | 231 | 0.0 | 2.0 | 0.13 | 2.34 | 1.70 | 99 | 1010.5 |
| 20260507133002 | 63 | 289 | 0.0 | 2.0 | 0.12 | 2.33 | 1.69 | 99 | 1010.6 |
| 20260507132500 | 63 | 289 | 0.0 | 1.0 | 0.10 | 2.31 | 1.67 | 99 | 1010.7 |
| 20260507132000 | 63 | 289 | 0.0 | 2.0 | 0.10 | 2.31 | 1.67 | 99 | 1010.8 |
| 20260507131500 | 63 | 289 | 0.0 | 2.0 | 0.09 | 2.30 | 1.66 | 99 | 1010.7 |
| 20260507130500 | 63 | 289 | 0.0 | 1.0 | 0.06 | 2.27 | 1.63 | 99 | 1010.7 |
| 20260507130005 | 63 | 289 | 1.0 | 5.0 | 0.05 | 2.26 | 1.62 | 99 | 1010.8 |
| 20260507125500 | 63 | 304 | 1.0 | 5.0 | 0.03 | 2.24 | 1.60 | 99 | 1011.0 |